• Join FlightAware (Why Join?)
  • Login
  • US Flag 
09:21AM EDT


 

Airport Tracker/Info


-or-


 

Live Flight TrackerFlight Track Log ✈ AWE1056 ✈ 31-Jul-2013 ✈ KCLT - KDCA

Flight Track Log - Related Links

Times and Time Zones

All times are in EDT time to prevent confusion due to time zone crossing. See the AWE1056 flight status page for this flight to view local times or setup timezone preferences in your user account.

Time Position Orientation Groundspeed Altitude Reporting Facility
EDT Latitude Longitude Course Direction KTS MPH feet Rate Location/Type
08:31PM 35.1933 -80.9533 182° South 162 186 1,700  Level Atlanta Center
08:32PM 35.1369 -80.9556 182° South 196 226 3,700 2,160 Climbing Atlanta Center
08:33PM 35.0925 -81.0106 225° Southwest 277 319 6,400 2,100 Climbing Atlanta Center
08:34PM 35.0903 -81.0942 268° West 272 313 8,000 1,740 Climbing Atlanta Center
08:35PM 35.1175 -81.1822 291° West 272 313 10,000 2,220 Climbing Atlanta Center
08:36PM 35.1850 -81.2181 337° Northwest 260 299 12,500 2,280 Climbing Atlanta Center
08:37PM 35.2606 -81.1442 39° Northeast 246 283 14,600 2,280 Climbing Atlanta Center
08:38PM 35.3381 -81.0625 41° Northeast 293 337 17,100 1,680 Climbing Atlanta Center
08:39PM 35.4194 -80.9831 38° Northeast 351 404 18,000 1,200 Climbing Atlanta Center
08:40PM 35.5208 -80.9461 17° North 369 425 19,600 1,800 Climbing Atlanta Center
08:41PM 35.6264 -80.9117 15° North 386 444 21,600 1,680 Climbing Atlanta Center
08:42PM 35.7342 -80.8844 12° North 393 452 23,000 1,140 Climbing Atlanta Center
08:43PM 35.8422 -80.8700 North 393 452 23,900 1,200 Climbing Atlanta Center
08:44PM 35.9544 -80.8578 North 393 452 25,400 1,080 Climbing Atlanta Center
08:45PM 36.0772 -80.8428 North 419 482 26,100 720 Climbing Atlanta Center
08:46PM 36.2144 -80.8244 North 439 505 26,900 1,080 Climbing Atlanta Center
08:47PM 36.3472 -80.8064 North 465 535 28,300 1,620 Climbing Atlanta Center
08:49PM 36.5778 -80.7753 North 466 536 31,500 1,620 Climbing Washington Center
08:50PM 36.6972 -80.7653 North 449 517 32,900 720 Climbing Washington Center
08:51PM 36.8272 -80.7506 North 449 517 33,000  Climbing Washington Center
08:52PM 36.9511 -80.7328 North 449 517 33,000  Level Washington Center
08:53PM 37.0750 -80.7178 North 449 517 33,000  Level Washington Center
08:54PM 37.1911 -80.6839 13° North 449 517 33,000  Level Washington Center
08:55PM 37.3139 -80.6397 16° North 454 522 33,000  Level Washington Center
08:56PM 37.4386 -80.6008 14° North 454 522 33,000  Level Washington Center
08:57PM 37.5614 -80.5567 16° North 460 529 33,000  Level Washington Center
08:58PM 37.6861 -80.5175 14° North 465 535 33,000  Level Washington Center
08:59PM 37.8217 -80.4711 15° North 453 521 33,000 -120 Level Washington Center
09:00PM 37.9422 -80.4317 14° North 453 521 32,800 -600 Descending Washington Center
09:01PM 38.0478 -80.3436 33° Northeast 441 507 31,800 -960 Descending Washington Center
09:02PM 38.1161 -80.2000 59° Northeast 442 509 30,900 -1,020 Descending Washington Center
09:03PM 38.1608 -80.0656 67° East 442 509 29,900 -1,020 Descending Washington Center
09:04PM 38.2119 -79.9178 66° East 447 514 28,900 -1,020 Descending Washington Center
09:05PM 38.2631 -79.7700 66° East 452 520 27,900 -960 Descending Washington Center
09:06PM 38.3164 -79.6194 66° East 452 520 27,000 -960 Descending Washington Center
09:07PM 38.3650 -79.4711 67° East 452 520 26,000 -540 Descending Washington Center
09:08PM 38.4203 -79.3097 66° East 452 520 26,000 -600 Level Washington Center
09:09PM 38.4519 -79.1522 76° East 447 514 24,900 -1,200 Descending Washington Center
09:10PM 38.4775 -78.9969 78° East 447 514 23,700 -1,200 Descending Washington Center
09:11PM 38.5000 -78.8547 79° East 433 498 22,500 -1,200 Descending Washington Center
09:12PM 38.5228 -78.7072 79° East 416 479 21,400 -1,200 Descending Washington Center
09:13PM 38.5450 -78.5675 78° East 410 472 20,100 -1,380 Descending Washington Center
09:14PM 38.5672 -78.4275 78° East 405 466 18,700 -1,380 Descending Washington Center
09:15PM 38.5892 -78.2931 78° East 399 459 17,500 -1,440 Descending Washington Center
09:16PM 38.6233 -78.1639 71° East 388 447 15,900 -1,320 Descending Washington Center
09:17PM 38.6633 -78.0431 67° East 377 434 14,900 -1,020 Descending Washington Center
09:18PM 38.7011 -77.9272 67° East 364 419 13,900 -1,260 Descending Washington Center
09:19PM 38.7364 -77.8192 67° East 337 388 12,500 -1,200 Descending Washington Center
09:20PM 38.7942 -77.7383 47° Northeast 315 362 11,500 -1,140 Descending Washington Center
09:21PM 38.8456 -77.6653 48° Northeast 305 351 10,300 -1,500 Descending Washington Center
09:22PM 38.9000 -77.5333 62° Northeast 302 348 8,300 -1,920 Descending Potomac TRACON
09:23PM 38.9167 -77.4333 78° East 289 333 6,200 -1,620 Descending Potomac TRACON
09:24PM 38.9333 -77.3333 78° East 277 319 5,000 -900 Descending Potomac TRACON
09:25PM 38.9667 -77.2500 63° Northeast 248 285 4,400 -900 Descending Potomac TRACON
09:26PM 38.9667 -77.1667 90° East 208 239 3,300 -1,200 Descending Potomac TRACON
09:27PM 38.9500 -77.1333 123° Southeast 188 216 2,000 -1,080 Descending Potomac TRACON
09:28PM 38.9167 -77.0833 131° Southeast 150 173 1,300 -720 Descending Potomac TRACON
09:29PM 38.8833 -77.0500 142° Southeast 124 143 700 -600 Descending Potomac TRACON